Time,TemperatureF,DewpointF,PressureIn,WindDirection,WindDirectionDegrees,WindSpeedMPH,WindSpeedGustMPH,Humidity,HourlyPrecipIn,Conditions,Clouds,dailyrainin,SoftwareType,DateUTC
2013-01-12 00:01:00,36.9,33.1,30.15,South,178,0.0,1.0,86,0.00,,,0.00,WUHU216DAVISVP2,2013-01-12 08:01:00,
2013-01-12 00:06:00,36.1,32.6,30.15,South,178,0.0,2.0,87,0.00,,,0.00,WUHU216DAVISVP2,2013-01-12 08:06:00,
2013-01-12 00:11:00,35.6,32.1,30.15,South,178,0.0,2.0,87,0.00,,,0.00,WUHU216DAVISVP2,2013-01-12 08:11:00,
2013-01-12 00:16:00,35.5,32.3,30.15,South,178,0.0,0.0,88,0.00,,,0.00,WUHU216DAVISVP2,2013-01-12 08:16:00,
2013-01-12 00:21:00,35.5,32.5,30.15,South,178,0.0,0.0,89,0.00,,,0.00,WUHU216DAVISVP2,2013-01-12 08:21:00,
2013-01-12 00:26:00,35.5,32.5,30.15,South,178,0.0,0.0,89,0.00,,,0.00,WUHU216DAVISVP2,2013-01-12 08:26:00,
2013-01-12 00:31:00,35.3,32.3,30.15,South,178,0.0,0.0,89,0.00,,,0.00,WUHU216DAVISVP2,2013-01-12 08:31:00,
2013-01-12 00:36:00,35.0,32.0,30.15,South,178,0.0,0.0,89,0.00,,,0.00,WUHU216DAVISVP2,2013-01-12 08:36:00,
2013-01-12 00:41:00,34.8,31.8,30.15,South,178,0.0,0.0,89,0.00,,,0.00,WUHU216DAVISVP2,2013-01-12 08:41:00,
2013-01-12 00:46:00,34.6,31.6,30.15,South,178,0.0,1.0,89,0.00,,,0.00,WUHU216DAVISVP2,2013-01-12 08:46:00,
2013-01-12 00:51:00,34.7,32.0,30.15,South,178,0.0,1.0,90,0.00,,,0.00,WUHU216DAVISVP2,2013-01-12 08:51:00,
2013-01-12 00:56:00,34.7,32.0,30.15,South,178,1.0,2.0,90,0.00,,,0.00,WUHU216DAVISVP2,2013-01-12 08:56:00,
2013-01-12 01:01:00,33.7,32.6,30.15,South,178,0.0,2.0,96,0.00,,,0.00,WUHU216DAVISVP2,2013-01-12 09:01:00,
2013-01-12 01:06:00,33.4,30.7,30.16,South,178,0.0,2.0,90,0.00,,,0.00,WUHU216DAVISVP2,2013-01-12 09:06:00,
2013-01-12 01:11:00,33.6,31.2,30.16,South,178,0.0,0.0,91,0.00,,,0.00,WUHU216DAVISVP2,2013-01-12 09:11:00,
2013-01-12 01:16:00,33.4,31.0,30.16,South,178,0.0,0.0,91,0.00,,,0.00,WUHU216DAVISVP2,2013-01-12 09:16:00,
2013-01-12 01:21:00,33.2,30.8,30.16,South,178,0.0,0.0,91,0.00,,,0.00,WUHU216DAVISVP2,2013-01-12 09:21:00,
2013-01-12 01:26:00,33.3,31.2,30.16,South,178,0.0,0.0,92,0.00,,,0.00,WUHU216DAVISVP2,2013-01-12 09:26:00,
2013-01-12 01:31:00,33.3,31.2,30.17,South,178,0.0,2.0,92,0.00,,,0.00,WUHU216DAVISVP2,2013-01-12 09:31:00,
2013-01-12 01:36:00,33.3,31.2,30.17,South,178,0.0,2.0,92,0.00,,,0.00,WUHU216DAVISVP2,2013-01-12 09:36:00,
2013-01-12 01:41:00,33.7,31.8,30.17,South,178,0.0,2.0,93,0.00,,,0.00,WUHU216DAVISVP2,2013-01-12 09:41:00,
2013-01-12 01:46:00,33.7,31.6,30.17,South,178,0.0,0.0,92,0.00,,,0.00,WUHU216DAVISVP2,2013-01-12 09:46:00,
2013-01-12 01:51:00,34.1,32.2,30.17,South,178,0.0,0.0,93,0.00,,,0.00,WUHU216DAVISVP2,2013-01-12 09:51:00,
2013-01-12 01:56:00,34.1,32.0,30.17,South,178,0.0,0.0,92,0.00,,,0.00,WUHU216DAVISVP2,2013-01-12 09:56:00,
2013-01-12 02:01:00,34.6,32.7,30.17,South,178,0.0,0.0,93,0.00,,,0.00,WUHU216DAVISVP2,2013-01-12 10:01:00,
2013-01-12 02:06:00,34.8,32.9,30.17,South,178,0.0,0.0,93,0.00,,,0.00,WUHU216DAVISVP2,2013-01-12 10:06:00,
2013-01-12 02:11:00,34.6,32.5,30.17,South,178,0.0,0.0,92,0.00,,,0.00,WUHU216DAVISVP2,2013-01-12 10:11:00,
2013-01-12 02:16:00,34.3,32.2,30.17,South,178,0.0,0.0,92,0.00,,,0.00,WUHU216DAVISVP2,2013-01-12 10:16:00,
2013-01-12 02:21:00,34.0,31.9,30.17,South,178,0.0,0.0,92,0.00,,,0.00,WUHU216DAVISVP2,2013-01-12 10:21:00,
2013-01-12 02:26:00,33.4,31.3,30.17,South,178,0.0,0.0,92,0.00,,,0.00,WUHU216DAVISVP2,2013-01-12 10:26:00,
2013-01-12 02:31:00,33.4,31.5,30.17,South,178,0.0,0.0,93,0.00,,,0.00,WUHU216DAVISVP2,2013-01-12 10:31:00,
2013-01-12 02:36:00,33.9,32.0,30.17,South,178,0.0,0.0,93,0.00,,,0.00,WUHU216DAVISVP2,2013-01-12 10:36:00,
2013-01-12 02:41:00,33.9,32.0,30.17,South,178,1.0,1.0,93,0.00,,,0.00,WUHU216DAVISVP2,2013-01-12 10:41:00,
2013-01-12 02:46:00,33.7,31.8,30.17,East,86,0.0,2.0,93,0.00,,,0.00,WUHU216DAVISVP2,2013-01-12 10:46:00,
2013-01-12 02:51:00,33.7,31.8,30.17,East,86,0.0,2.0,93,0.00,,,0.00,WUHU216DAVISVP2,2013-01-12 10:51:00,
2013-01-12 02:56:00,33.7,31.8,30.17,East,94,2.0,4.0,93,0.00,,,0.00,WUHU216DAVISVP2,2013-01-12 10:56:00,
2013-01-12 03:01:00,33.9,32.3,30.17,East,94,0.0,5.0,94,0.00,,,0.00,WUHU216DAVISVP2,2013-01-12 11:01:00,
2013-01-12 03:06:00,33.8,32.3,30.17,East,94,0.0,5.0,94,0.00,,,0.00,WUHU216DAVISVP2,2013-01-12 11:06:00,
2013-01-12 03:11:00,33.7,32.1,30.17,East,94,0.0,2.0,94,0.00,,,0.00,WUHU216DAVISVP2,2013-01-12 11:11:00,
2013-01-12 03:16:00,33.4,31.6,30.17,East,94,0.0,0.0,93,0.00,,,0.00,WUHU216DAVISVP2,2013-01-12 11:16:00,
2013-01-12 03:21:00,33.4,31.9,30.17,East,94,0.0,1.0,94,0.00,,,0.00,WUHU216DAVISVP2,2013-01-12 11:21:00,
2013-01-12 03:26:00,33.3,31.8,30.17,East,94,1.0,2.0,94,0.00,,,0.00,WUHU216DAVISVP2,2013-01-12 11:26:00,
2013-01-12 03:31:00,33.2,31.6,30.17,East,94,0.0,2.0,94,0.00,,,0.00,WUHU216DAVISVP2,2013-01-12 11:31:00,
2013-01-12 03:36:00,33.3,31.7,30.17,East,94,0.0,2.0,94,0.00,,,0.00,WUHU216DAVISVP2,2013-01-12 11:36:00,
2013-01-12 03:41:00,33.2,31.6,30.17,East,94,0.0,2.0,94,0.00,,,0.00,WUHU216DAVISVP2,2013-01-12 11:41:00,
2013-01-12 03:46:00,32.9,31.3,30.17,East,94,0.0,0.0,94,0.00,,,0.00,WUHU216DAVISVP2,2013-01-12 11:46:00,
2013-01-12 03:51:00,33.0,31.4,30.17,East,94,0.0,0.0,94,0.00,,,0.00,WUHU216DAVISVP2,2013-01-12 11:51:00,
2013-01-12 03:56:00,32.7,31.1,30.17,East,94,1.0,1.0,94,0.00,,,0.00,WUHU216DAVISVP2,2013-01-12 11:56:00,
2013-01-12 04:01:00,32.7,31.2,30.17,East,94,0.0,1.0,94,0.00,,,0.00,WUHU216DAVISVP2,2013-01-12 12:01:00,
2013-01-12 04:06:00,32.6,31.0,30.17,East,94,0.0,1.0,94,0.00,,,0.00,WUHU216DAVISVP2,2013-01-12 12:06:00,
2013-01-12 04:11:00,32.1,30.5,30.18,East,94,0.0,0.0,94,0.00,,,0.00,WUHU216DAVISVP2,2013-01-12 12:11:00,
2013-01-12 04:16:00,31.6,30.0,30.18,East,94,0.0,0.0,94,0.00,,,0.00,WUHU216DAVISVP2,2013-01-12 12:16:00,
2013-01-12 04:21:00,31.8,30.3,30.18,East,94,0.0,0.0,94,0.00,,,0.00,WUHU216DAVISVP2,2013-01-12 12:21:00,
2013-01-12 04:26:00,31.9,30.3,30.18,East,94,0.0,1.0,94,0.00,,,0.00,WUHU216DAVISVP2,2013-01-12 12:26:00,
2013-01-12 04:31:00,31.7,30.1,30.18,East,94,1.0,1.0,94,0.00,,,0.00,WUHU216DAVISVP2,2013-01-12 12:31:00,
2013-01-12 04:36:00,32.0,30.7,30.18,East,94,0.0,2.0,95,0.00,,,0.00,WUHU216DAVISVP2,2013-01-12 12:36:00,
2013-01-12 04:41:00,32.0,30.4,30.18,East,94,0.0,2.0,94,0.00,,,0.00,WUHU216DAVISVP2,2013-01-12 12:41:00,
2013-01-12 04:46:00,31.6,30.1,30.19,East,94,0.0,0.0,94,0.00,,,0.00,WUHU216DAVISVP2,2013-01-12 12:46:00,
2013-01-12 04:51:00,31.3,29.8,30.19,East,94,0.0,0.0,94,0.00,,,0.00,WUHU216DAVISVP2,2013-01-12 12:51:00,
2013-01-12 04:56:00,31.1,29.6,30.19,East,94,0.0,0.0,94,0.00,,,0.00,WUHU216DAVISVP2,2013-01-12 12:56:00,
2013-01-12 05:01:00,31.1,29.6,30.19,East,94,0.0,0.0,94,0.00,,,0.00,WUHU216DAVISVP2,2013-01-12 13:01:00,
2013-01-12 05:06:00,31.0,29.4,30.19,East,94,0.0,0.0,94,0.00,,,0.00,WUHU216DAVISVP2,2013-01-12 13:06:00,
2013-01-12 05:11:00,30.8,29.2,30.19,East,94,0.0,0.0,94,0.00,,,0.00,WUHU216DAVISVP2,2013-01-12 13:11:00,
2013-01-12 05:16:00,31.0,29.4,30.19,East,94,0.0,0.0,94,0.00,,,0.00,WUHU216DAVISVP2,2013-01-12 13:16:00,
2013-01-12 05:21:00,31.2,29.7,30.19,East,94,0.0,0.0,94,0.00,,,0.00,WUHU216DAVISVP2,2013-01-12 13:21:00,
2013-01-12 05:26:00,30.8,30.8,30.19,East,94,0.0,0.0,100,0.00,,,0.00,WUHU216DAVISVP2,2013-01-12 13:26:00,
2013-01-12 05:31:00,30.7,29.1,30.19,East,94,0.0,0.0,94,0.00,,,0.00,WUHU216DAVISVP2,2013-01-12 13:31:00,
2013-01-12 05:36:00,30.4,28.8,30.19,East,94,0.0,0.0,94,0.00,,,0.00,WUHU216DAVISVP2,2013-01-12 13:36:00,
2013-01-12 05:41:00,30.6,29.0,30.20,East,94,1.0,2.0,94,0.00,,,0.00,WUHU216DAVISVP2,2013-01-12 13:41:00,
2013-01-12 05:46:00,30.7,29.4,30.20,East,94,0.0,2.0,95,0.00,,,0.00,WUHU216DAVISVP2,2013-01-12 13:46:00,
2013-01-12 05:51:00,30.8,29.2,30.20,East,94,0.0,2.0,94,0.00,,,0.00,WUHU216DAVISVP2,2013-01-12 13:51:00,
2013-01-12 05:56:00,30.5,28.9,30.20,East,94,0.0,0.0,94,0.00,,,0.00,WUHU216DAVISVP2,2013-01-12 13:56:00,
2013-01-12 06:01:00,30.2,28.6,30.20,East,94,0.0,0.0,94,0.00,,,0.00,WUHU216DAVISVP2,2013-01-12 14:01:00,
2013-01-12 06:06:00,30.2,28.6,30.20,East,94,0.0,0.0,94,0.00,,,0.00,WUHU216DAVISVP2,2013-01-12 14:06:00,
2013-01-12 06:11:00,30.1,28.5,30.20,East,94,0.0,0.0,94,0.00,,,0.00,WUHU216DAVISVP2,2013-01-12 14:11:00,
2013-01-12 06:16:00,29.9,28.3,30.21,East,94,0.0,0.0,94,0.00,,,0.00,WUHU216DAVISVP2,2013-01-12 14:16:00,
2013-01-12 06:21:00,29.5,28.0,30.21,East,94,0.0,0.0,94,0.00,,,0.00,WUHU216DAVISVP2,2013-01-12 14:21:00,
2013-01-12 06:26:00,29.6,28.0,30.21,East,94,0.0,0.0,94,0.00,,,0.00,WUHU216DAVISVP2,2013-01-12 14:26:00,
2013-01-12 06:31:00,29.7,28.4,30.21,East,94,0.0,0.0,95,0.00,,,0.00,WUHU216DAVISVP2,2013-01-12 14:31:00,
2013-01-12 06:36:00,29.3,27.7,30.22,East,94,0.0,0.0,94,0.00,,,0.00,WUHU216DAVISVP2,2013-01-12 14:36:00,
2013-01-12 06:41:00,29.2,27.6,30.22,East,94,0.0,0.0,94,0.00,,,0.00,WUHU216DAVISVP2,2013-01-12 14:41:00,
2013-01-12 06:46:00,29.6,28.3,30.22,East,94,0.0,0.0,95,0.00,,,0.00,WUHU216DAVISVP2,2013-01-12 14:46:00,
2013-01-12 06:51:00,29.7,28.4,30.22,East,94,0.0,0.0,95,0.00,,,0.00,WUHU216DAVISVP2,2013-01-12 14:51:00,
2013-01-12 06:56:00,29.8,28.5,30.22,East,94,0.0,0.0,95,0.00,,,0.00,WUHU216DAVISVP2,2013-01-12 14:56:00,
2013-01-12 07:01:00,29.8,28.3,30.22,East,94,0.0,1.0,94,0.00,,,0.00,WUHU216DAVISVP2,2013-01-12 15:01:00,
2013-01-12 07:06:00,29.4,27.9,30.22,East,94,0.0,1.0,94,0.00,,,0.00,WUHU216DAVISVP2,2013-01-12 15:06:00,
2013-01-12 07:11:00,29.5,28.2,30.22,East,94,1.0,1.0,95,0.00,,,0.00,WUHU216DAVISVP2,2013-01-12 15:11:00,
2013-01-12 07:16:00,30.0,28.7,30.22,East,94,0.0,2.0,95,0.00,,,0.00,WUHU216DAVISVP2,2013-01-12 15:16:00,
2013-01-12 07:21:00,29.9,28.3,30.23,East,94,0.0,2.0,94,0.00,,,0.00,WUHU216DAVISVP2,2013-01-12 15:21:00,
2013-01-12 07:26:00,30.3,29.0,30.23,East,94,0.0,2.0,95,0.00,,,0.00,WUHU216DAVISVP2,2013-01-12 15:26:00,
2013-01-12 07:31:00,30.7,29.4,30.23,East,94,0.0,2.0,95,0.00,,,0.00,WUHU216DAVISVP2,2013-01-12 15:31:00,
2013-01-12 07:36:00,30.9,29.6,30.23,East,94,0.0,2.0,95,0.00,,,0.00,WUHU216DAVISVP2,2013-01-12 15:36:00,
2013-01-12 07:41:00,30.7,29.1,30.24,East,94,0.0,2.0,94,0.00,,,0.00,WUHU216DAVISVP2,2013-01-12 15:41:00,
2013-01-12 07:46:00,31.2,29.9,30.24,East,94,0.0,0.0,95,0.00,,,0.00,WUHU216DAVISVP2,2013-01-12 15:46:00,
2013-01-12 07:51:00,31.6,30.3,30.24,East,94,0.0,1.0,95,0.00,,,0.00,WUHU216DAVISVP2,2013-01-12 15:51:00,
2013-01-12 07:56:00,32.0,30.7,30.24,East,94,0.0,2.0,95,0.00,,,0.00,WUHU216DAVISVP2,2013-01-12 15:56:00,
2013-01-12 08:01:00,32.3,31.0,30.24,East,94,0.0,2.0,95,0.00,,,0.00,WUHU216DAVISVP2,2013-01-12 16:01:00,
2013-01-12 08:06:00,32.3,31.0,30.25,East,94,0.0,2.0,95,0.00,,,0.00,WUHU216DAVISVP2,2013-01-12 16:06:00,
2013-01-12 08:11:00,32.0,30.7,30.25,East,94,0.0,0.0,95,0.00,,,0.00,WUHU216DAVISVP2,2013-01-12 16:11:00,
2013-01-12 08:16:00,32.6,31.3,30.25,East,94,0.0,0.0,95,0.00,,,0.00,WUHU216DAVISVP2,2013-01-12 16:16:00,
2013-01-12 08:21:00,33.1,31.8,30.25,East,94,0.0,0.0,95,0.00,,,0.00,WUHU216DAVISVP2,2013-01-12 16:21:00,
2013-01-12 08:26:00,34.0,32.7,30.25,East,94,0.0,0.0,95,0.00,,,0.00,WUHU216DAVISVP2,2013-01-12 16:26:00,
2013-01-12 08:31:00,34.8,33.2,30.25,East,94,1.0,2.0,94,0.00,,,0.00,WUHU216DAVISVP2,2013-01-12 16:31:00,
2013-01-12 08:36:00,35.2,33.4,30.26,East,94,0.0,2.0,93,0.00,,,0.00,WUHU216DAVISVP2,2013-01-12 16:36:00,
2013-01-12 08:41:00,35.7,33.6,30.26,WNW,298,2.0,4.0,92,0.00,,,0.00,WUHU216DAVISVP2,2013-01-12 16:41:00,
2013-01-12 08:46:00,36.2,33.8,30.26,NW,316,2.0,4.0,91,0.00,,,0.00,WUHU216DAVISVP2,2013-01-12 16:46:00,
2013-01-12 08:51:00,36.6,33.9,30.26,NW,323,4.0,5.0,90,0.00,,,0.00,WUHU216DAVISVP2,2013-01-12 16:51:00,
2013-01-12 08:56:00,37.0,34.0,30.26,NW,309,2.0,5.0,89,0.00,,,0.00,WUHU216DAVISVP2,2013-01-12 16:56:00,
2013-01-12 09:01:00,37.2,34.2,30.26,NW,306,3.0,5.0,89,0.00,,,0.00,WUHU216DAVISVP2,2013-01-12 17:01:00,
2013-01-12 09:06:00,37.3,34.0,30.26,NW,313,2.0,5.0,88,0.00,,,0.00,WUHU216DAVISVP2,2013-01-12 17:06:00,
2013-01-12 09:11:00,37.7,34.1,30.26,NW,306,4.0,5.0,87,0.00,,,0.00,WUHU216DAVISVP2,2013-01-12 17:11:00,
2013-01-12 09:16:00,38.1,34.5,30.26,NW,309,0.0,5.0,87,0.00,,,0.00,WUHU216DAVISVP2,2013-01-12 17:16:00,
2013-01-12 09:21:00,38.5,34.7,30.26,West,281,0.0,5.0,86,0.00,,,0.00,WUHU216DAVISVP2,2013-01-12 17:21:00,
2013-01-12 09:26:00,38.9,35.0,30.25,NW,306,3.0,4.0,86,0.00,,,0.00,WUHU216DAVISVP2,2013-01-12 17:26:00,
2013-01-12 09:31:00,39.3,35.1,30.25,NW,306,1.0,4.0,85,0.00,,,0.00,WUHU216DAVISVP2,2013-01-12 17:31:00,
2013-01-12 09:36:00,40.1,35.6,30.25,West,281,4.0,4.0,84,0.00,,,0.00,WUHU216DAVISVP2,2013-01-12 17:36:00,
2013-01-12 09:41:00,40.4,35.3,30.25,NW,325,3.0,4.0,82,0.00,,,0.00,WUHU216DAVISVP2,2013-01-12 17:41:00,
2013-01-12 09:46:00,40.6,35.2,30.25,WNW,295,2.0,6.0,81,0.00,,,0.00,WUHU216DAVISVP2,2013-01-12 17:46:00,
2013-01-12 09:51:00,41.3,35.6,30.25,WNW,294,4.0,6.0,80,0.00,,,0.00,WUHU216DAVISVP2,2013-01-12 17:51:00,
2013-01-12 09:56:00,41.1,34.8,30.25,WNW,286,3.0,5.0,78,0.00,,,0.00,WUHU216DAVISVP2,2013-01-12 17:56:00,
2013-01-12 10:01:00,41.7,35.4,30.26,NW,307,3.0,7.0,78,0.00,,,0.00,WUHU216DAVISVP2,2013-01-12 18:01:00,
2013-01-12 10:06:00,41.4,34.8,30.25,WNW,290,3.0,7.0,77,0.00,,,0.00,WUHU216DAVISVP2,2013-01-12 18:06:00,
2013-01-12 10:11:00,41.4,34.8,30.25,WNW,282,2.0,7.0,77,0.00,,,0.00,WUHU216DAVISVP2,2013-01-12 18:11:00,
2013-01-12 10:16:00,41.8,35.2,30.25,NW,310,2.0,7.0,77,0.00,,,0.00,WUHU216DAVISVP2,2013-01-12 18:16:00,
2013-01-12 10:21:00,41.9,34.9,30.25,NW,311,5.0,6.0,76,0.00,,,0.00,WUHU216DAVISVP2,2013-01-12 18:21:00,
2013-01-12 10:26:00,42.8,35.5,30.25,North,355,1.0,6.0,75,0.00,,,0.00,WUHU216DAVISVP2,2013-01-12 18:26:00,
2013-01-12 10:31:00,42.8,35.2,30.25,WNW,298,2.0,6.0,74,0.00,,,0.00,WUHU216DAVISVP2,2013-01-12 18:31:00,
2013-01-12 10:36:00,42.6,35.3,30.25,NW,313,2.0,6.0,75,0.00,,,0.00,WUHU216DAVISVP2,2013-01-12 18:36:00,
2013-01-12 10:41:00,42.7,35.4,30.25,NW,324,2.0,5.0,75,0.00,,,0.00,WUHU216DAVISVP2,2013-01-12 18:41:00,
2013-01-12 10:46:00,42.8,35.2,30.25,NW,305,2.0,4.0,74,0.00,,,0.00,WUHU216DAVISVP2,2013-01-12 18:46:00,
2013-01-12 10:51:00,43.0,35.3,30.24,WNW,298,4.0,4.0,74,0.00,,,0.00,WUHU216DAVISVP2,2013-01-12 18:51:00,
2013-01-12 10:56:00,43.2,35.2,30.24,NNW,329,3.0,5.0,73,0.00,,,0.00,WUHU216DAVISVP2,2013-01-12 18:56:00,
2013-01-12 11:01:00,43.4,35.4,30.24,NNW,330,0.0,5.0,73,0.00,,,0.00,WUHU216DAVISVP2,2013-01-12 19:01:00,
2013-01-12 11:06:00,43.9,36.2,30.24,NNW,333,2.0,4.0,74,0.00,,,0.00,WUHU216DAVISVP2,2013-01-12 19:06:00,
2013-01-12 11:11:00,44.8,36.1,30.23,North,355,4.0,4.0,71,0.00,,,0.00,WUHU216DAVISVP2,2013-01-12 19:11:00,
2013-01-12 11:16:00,44.9,36.2,30.23,North,360,0.0,4.0,71,0.00,,,0.00,WUHU216DAVISVP2,2013-01-12 19:16:00,
2013-01-12 11:21:00,45.0,35.9,30.23,North,360,0.0,4.0,70,0.00,,,0.00,WUHU216DAVISVP2,2013-01-12 19:21:00,
2013-01-12 11:26:00,44.9,36.2,30.22,North,360,0.0,2.0,71,0.00,,,0.00,WUHU216DAVISVP2,2013-01-12 19:26:00,
2013-01-12 11:31:00,45.3,35.5,30.22,North,360,0.0,2.0,68,0.00,,,0.00,WUHU216DAVISVP2,2013-01-12 19:31:00,
2013-01-12 11:36:00,46.1,37.0,30.22,North,5,0.0,2.0,70,0.00,,,0.00,WUHU216DAVISVP2,2013-01-12 19:36:00,
2013-01-12 11:41:00,46.0,35.8,30.21,North,5,0.0,2.0,67,0.00,,,0.00,WUHU216DAVISVP2,2013-01-12 19:41:00,
2013-01-12 11:46:00,46.4,36.1,30.21,North,5,0.0,2.0,67,0.00,,,0.00,WUHU216DAVISVP2,2013-01-12 19:46:00,
2013-01-12 11:51:00,47.0,36.6,30.21,North,9,3.0,3.0,67,0.00,,,0.00,WUHU216DAVISVP2,2013-01-12 19:51:00,
2013-01-12 11:56:00,47.4,36.7,30.20,East,85,3.0,6.0,66,0.00,,,0.00,WUHU216DAVISVP2,2013-01-12 19:56:00,
2013-01-12 12:01:00,47.7,37.0,30.20,East,94,1.0,6.0,66,0.00,,,0.00,WUHU216DAVISVP2,2013-01-12 20:01:00,
2013-01-12 12:06:00,47.7,37.0,30.20,ENE,60,1.0,3.0,66,0.00,,,0.00,WUHU216DAVISVP2,2013-01-12 20:06:00,
2013-01-12 12:11:00,48.1,37.8,30.19,East,85,2.0,3.0,67,0.00,,,0.00,WUHU216DAVISVP2,2013-01-12 20:11:00,
2013-01-12 12:16:00,47.6,37.2,30.19,East,85,0.0,3.0,67,0.00,,,0.00,WUHU216DAVISVP2,2013-01-12 20:16:00,
2013-01-12 12:21:00,47.5,37.1,30.19,East,101,2.0,5.0,67,0.00,,,0.00,WUHU216DAVISVP2,2013-01-12 20:21:00,
2013-01-12 12:26:00,48.1,36.9,30.19,ESE,120,0.0,5.0,65,0.00,,,0.00,WUHU216DAVISVP2,2013-01-12 20:26:00,
2013-01-12 12:31:00,48.3,37.1,30.19,SE,145,0.0,5.0,65,0.00,,,0.00,WUHU216DAVISVP2,2013-01-12 20:31:00,
2013-01-12 12:36:00,48.1,36.5,30.18,South,186,5.0,5.0,64,0.00,,,0.00,WUHU216DAVISVP2,2013-01-12 20:36:00,
2013-01-12 12:41:00,48.5,35.8,30.18,SE,130,1.0,5.0,61,0.00,,,0.00,WUHU216DAVISVP2,2013-01-12 20:41:00,
2013-01-12 12:46:00,47.7,35.0,30.18,SW,216,0.0,5.0,61,0.00,,,0.00,WUHU216DAVISVP2,2013-01-12 20:46:00,
2013-01-12 12:51:00,48.3,35.5,30.18,South,181,0.0,5.0,61,0.00,,,0.00,WUHU216DAVISVP2,2013-01-12 20:51:00,
2013-01-12 12:56:00,48.8,36.8,30.18,ESE,104,2.0,5.0,63,0.00,,,0.00,WUHU216DAVISVP2,2013-01-12 20:56:00,
2013-01-12 13:01:00,49.2,37.5,30.18,SSE,148,2.0,5.0,64,0.00,,,0.00,WUHU216DAVISVP2,2013-01-12 21:01:00,
2013-01-12 13:06:00,48.7,37.1,30.18,SSE,167,4.0,5.0,64,0.00,,,0.00,WUHU216DAVISVP2,2013-01-12 21:06:00,
2013-01-12 13:11:00,48.7,36.3,30.18,ESE,121,2.0,5.0,62,0.00,,,0.00,WUHU216DAVISVP2,2013-01-12 21:11:00,
2013-01-12 13:16:00,49.2,35.6,30.18,East,99,0.0,5.0,59,0.00,,,0.00,WUHU216DAVISVP2,2013-01-12 21:16:00,
2013-01-12 13:21:00,49.0,36.6,30.18,South,185,2.0,7.0,62,0.00,,,0.00,WUHU216DAVISVP2,2013-01-12 21:21:00,
2013-01-12 13:26:00,48.8,36.0,30.18,SSW,198,0.0,7.0,61,0.00,,,0.00,WUHU216DAVISVP2,2013-01-12 21:26:00,
2013-01-12 13:31:00,48.0,35.3,30.18,West,263,0.0,6.0,61,0.00,,,0.00,WUHU216DAVISVP2,2013-01-12 21:31:00,
2013-01-12 13:36:00,48.3,36.0,30.18,South,188,4.0,6.0,62,0.00,,,0.00,WUHU216DAVISVP2,2013-01-12 21:36:00,
2013-01-12 13:41:00,48.6,35.4,30.18,South,175,0.0,6.0,60,0.00,,,0.00,WUHU216DAVISVP2,2013-01-12 21:41:00,
2013-01-12 13:46:00,48.2,35.0,30.17,South,175,0.0,6.0,60,0.00,,,0.00,WUHU216DAVISVP2,2013-01-12 21:46:00,
2013-01-12 13:51:00,48.0,34.9,30.18,South,172,0.0,1.0,60,0.00,,,0.00,WUHU216DAVISVP2,2013-01-12 21:51:00,
2013-01-12 13:56:00,47.8,35.1,30.18,ESE,115,0.0,4.0,61,0.00,,,0.00,WUHU216DAVISVP2,2013-01-12 21:56:00,
2013-01-12 14:01:00,48.0,35.3,30.18,ESE,105,0.0,5.0,61,0.00,,,0.00,WUHU216DAVISVP2,2013-01-12 22:01:00,
2013-01-12 14:06:00,48.0,35.3,30.18,ESE,105,2.0,5.0,61,0.00,,,0.00,WUHU216DAVISVP2,2013-01-12 22:06:00,
2013-01-12 14:11:00,47.9,34.8,30.18,South,169,0.0,5.0,60,0.00,,,0.00,WUHU216DAVISVP2,2013-01-12 22:11:00,
2013-01-12 14:16:00,47.5,34.8,30.18,South,169,0.0,5.0,61,0.00,,,0.00,WUHU216DAVISVP2,2013-01-12 22:16:00,
2013-01-12 14:21:00,47.9,34.8,30.17,South,169,0.0,0.0,60,0.00,,,0.00,WUHU216DAVISVP2,2013-01-12 22:21:00,
2013-01-12 14:26:00,47.9,34.8,30.17,South,169,0.0,0.0,60,0.00,,,0.00,WUHU216DAVISVP2,2013-01-12 22:26:00,
2013-01-12 14:31:00,47.6,34.9,30.17,South,169,0.0,0.0,61,0.00,,,0.00,WUHU216DAVISVP2,2013-01-12 22:31:00,
2013-01-12 14:36:00,47.7,35.0,30.17,South,169,0.0,1.0,61,0.00,,,0.00,WUHU216DAVISVP2,2013-01-12 22:36:00,
2013-01-12 14:41:00,48.2,35.0,30.17,South,169,0.0,1.0,60,0.00,,,0.00,WUHU216DAVISVP2,2013-01-12 22:41:00,
2013-01-12 14:46:00,48.5,34.9,30.17,NW,315,2.0,3.0,59,0.00,,,0.00,WUHU216DAVISVP2,2013-01-12 22:46:00,
2013-01-12 14:51:00,48.6,35.4,30.17,NW,322,0.0,4.0,60,0.00,,,0.00,WUHU216DAVISVP2,2013-01-12 22:51:00,
2013-01-12 14:56:00,48.9,35.7,30.17,NNW,327,1.0,4.0,60,0.00,,,0.00,WUHU216DAVISVP2,2013-01-12 22:56:00,
2013-01-12 15:01:00,48.3,35.6,30.17,NNW,329,2.0,5.0,61,0.00,,,0.00,WUHU216DAVISVP2,2013-01-12 23:01:00,
2013-01-12 15:06:00,48.1,35.8,30.17,NNW,329,0.0,5.0,62,0.00,,,0.00,WUHU216DAVISVP2,2013-01-12 23:06:00,
2013-01-12 15:11:00,47.8,35.5,30.17,NNW,329,1.0,4.0,62,0.00,,,0.00,WUHU216DAVISVP2,2013-01-12 23:11:00,
2013-01-12 15:16:00,47.8,35.9,30.17,NNW,329,0.0,2.0,63,0.00,,,0.00,WUHU216DAVISVP2,2013-01-12 23:16:00,
2013-01-12 15:21:00,48.1,35.4,30.17,NNW,329,0.0,2.0,61,0.00,,,0.00,WUHU216DAVISVP2,2013-01-12 23:21:00,
2013-01-12 15:26:00,48.2,35.0,30.17,NNW,329,0.0,1.0,60,0.00,,,0.00,WUHU216DAVISVP2,2013-01-12 23:26:00,
2013-01-12 15:31:00,48.4,34.8,30.17,NNW,329,2.0,2.0,59,0.00,,,0.00,WUHU216DAVISVP2,2013-01-12 23:31:00,
2013-01-12 15:36:00,48.5,35.3,30.17,NNW,329,1.0,3.0,60,0.00,,,0.00,WUHU216DAVISVP2,2013-01-12 23:36:00,
2013-01-12 15:41:00,48.4,34.8,30.17,NNW,329,0.0,3.0,59,0.00,,,0.00,WUHU216DAVISVP2,2013-01-12 23:41:00,
2013-01-12 15:46:00,48.2,35.0,30.16,NNW,329,0.0,3.0,60,0.00,,,0.00,WUHU216DAVISVP2,2013-01-12 23:46:00,
2013-01-12 15:51:00,48.4,34.8,30.16,NNW,329,0.0,1.0,59,0.00,,,0.00,WUHU216DAVISVP2,2013-01-12 23:51:00,
2013-01-12 15:56:00,48.0,34.9,30.16,NNW,329,0.0,1.0,60,0.00,,,0.00,WUHU216DAVISVP2,2013-01-12 23:56:00,
2013-01-12 16:01:00,48.1,35.0,30.16,ESE,111,0.0,2.0,60,0.00,,,0.00,WUHU216DAVISVP2,2013-01-13 00:01:00,
2013-01-12 16:06:00,48.1,34.5,30.16,East,101,0.0,5.0,59,0.00,,,0.00,WUHU216DAVISVP2,2013-01-13 00:06:00,
2013-01-12 16:11:00,47.8,34.7,30.16,East,101,0.0,5.0,60,0.00,,,0.00,WUHU216DAVISVP2,2013-01-13 00:11:00,
2013-01-12 16:16:00,47.7,34.6,30.16,East,101,0.0,2.0,60,0.00,,,0.00,WUHU216DAVISVP2,2013-01-13 00:16:00,
2013-01-12 16:21:00,47.4,35.1,30.16,East,101,0.0,2.0,62,0.00,,,0.00,WUHU216DAVISVP2,2013-01-13 00:21:00,
2013-01-12 16:26:00,47.1,34.4,30.16,East,101,0.0,2.0,61,0.00,,,0.00,WUHU216DAVISVP2,2013-01-13 00:26:00,
2013-01-12 16:31:00,47.0,34.3,30.16,East,101,0.0,0.0,61,0.00,,,0.00,WUHU216DAVISVP2,2013-01-13 00:31:00,
2013-01-12 16:36:00,46.8,34.1,30.16,East,101,0.0,0.0,61,0.00,,,0.00,WUHU216DAVISVP2,2013-01-13 00:36:00,
2013-01-12 16:41:00,46.8,34.6,30.16,East,101,0.0,4.0,62,0.00,,,0.00,WUHU216DAVISVP2,2013-01-13 00:41:00,
2013-01-12 16:46:00,46.3,34.9,30.16,NE,46,0.0,4.0,64,0.00,,,0.00,WUHU216DAVISVP2,2013-01-13 00:46:00,
2013-01-12 16:51:00,45.9,35.3,30.16,NE,46,0.0,3.0,66,0.00,,,0.00,WUHU216DAVISVP2,2013-01-13 00:51:00,
2013-01-12 16:56:00,45.8,34.8,30.16,NE,46,0.0,2.0,65,0.00,,,0.00,WUHU216DAVISVP2,2013-01-13 00:56:00,
2013-01-12 17:01:00,45.4,34.8,30.16,NE,46,0.0,0.0,66,0.00,,,0.00,WUHU216DAVISVP2,2013-01-13 01:01:00,
2013-01-12 17:06:00,45.0,35.2,30.16,NE,46,0.0,2.0,68,0.00,,,0.00,WUHU216DAVISVP2,2013-01-13 01:06:00,
2013-01-12 17:11:00,44.5,34.7,30.16,NE,46,0.0,2.0,68,0.00,,,0.00,WUHU216DAVISVP2,2013-01-13 01:11:00,
2013-01-12 17:16:00,44.2,34.8,30.16,NE,46,0.0,1.0,69,0.00,,,0.00,WUHU216DAVISVP2,2013-01-13 01:16:00,
2013-01-12 17:21:00,43.9,34.5,30.16,NE,46,0.0,1.0,69,0.00,,,0.00,WUHU216DAVISVP2,2013-01-13 01:21:00,
2013-01-12 17:26:00,43.5,34.4,30.16,NE,46,0.0,1.0,70,0.00,,,0.00,WUHU216DAVISVP2,2013-01-13 01:26:00,
2013-01-12 17:31:00,43.2,34.2,30.16,NE,46,0.0,0.0,70,0.00,,,0.00,WUHU216DAVISVP2,2013-01-13 01:31:00,
2013-01-12 17:36:00,42.8,34.1,30.16,NE,46,0.0,0.0,71,0.00,,,0.00,WUHU216DAVISVP2,2013-01-13 01:36:00,
2013-01-12 17:41:00,42.4,34.1,30.16,NE,46,0.0,1.0,72,0.00,,,0.00,WUHU216DAVISVP2,2013-01-13 01:41:00,
2013-01-12 17:46:00,42.3,34.3,30.16,NE,46,0.0,2.0,73,0.00,,,0.00,WUHU216DAVISVP2,2013-01-13 01:46:00,
2013-01-12 17:51:00,41.9,33.9,30.16,NE,46,0.0,2.0,73,0.00,,,0.00,WUHU216DAVISVP2,2013-01-13 01:51:00,
2013-01-12 17:56:00,41.9,33.9,30.16,NE,46,0.0,0.0,73,0.00,,,0.00,WUHU216DAVISVP2,2013-01-13 01:56:00,
2013-01-12 18:01:00,41.5,33.6,30.16,NE,46,0.0,0.0,73,0.00,,,0.00,WUHU216DAVISVP2,2013-01-13 02:01:00,
2013-01-12 18:06:00,41.3,33.7,30.16,NE,46,0.0,0.0,74,0.00,,,0.00,WUHU216DAVISVP2,2013-01-13 02:06:00,
2013-01-12 18:11:00,41.0,33.7,30.16,NE,46,0.0,0.0,75,0.00,,,0.00,WUHU216DAVISVP2,2013-01-13 02:11:00,
2013-01-12 18:16:00,40.7,33.4,30.16,NE,46,0.0,0.0,75,0.00,,,0.00,WUHU216DAVISVP2,2013-01-13 02:16:00,
2013-01-12 18:21:00,40.5,33.3,30.16,NE,46,0.0,0.0,75,0.00,,,0.00,WUHU216DAVISVP2,2013-01-13 02:21:00,
2013-01-12 18:26:00,40.1,33.2,30.16,NE,46,0.0,0.0,76,0.00,,,0.00,WUHU216DAVISVP2,2013-01-13 02:26:00,
2013-01-12 18:31:00,39.7,33.1,30.16,NE,46,0.0,0.0,77,0.00,,,0.00,WUHU216DAVISVP2,2013-01-13 02:31:00,
2013-01-12 18:36:00,39.4,32.8,30.16,NE,46,0.0,0.0,77,0.00,,,0.00,WUHU216DAVISVP2,2013-01-13 02:36:00,
2013-01-12 18:41:00,39.3,32.7,30.17,NE,46,0.0,0.0,77,0.00,,,0.00,WUHU216DAVISVP2,2013-01-13 02:41:00,
2013-01-12 18:46:00,38.8,32.9,30.17,NE,46,0.0,0.0,79,0.00,,,0.00,WUHU216DAVISVP2,2013-01-13 02:46:00,
2013-01-12 18:51:00,38.5,32.9,30.16,NE,46,0.0,0.0,80,0.00,,,0.00,WUHU216DAVISVP2,2013-01-13 02:51:00,
2013-01-12 18:56:00,38.3,32.7,30.16,NE,46,0.0,0.0,80,0.00,,,0.00,WUHU216DAVISVP2,2013-01-13 02:56:00,
2013-01-12 19:01:00,38.3,32.7,30.16,NE,46,0.0,0.0,80,0.00,,,0.00,WUHU216DAVISVP2,2013-01-13 03:01:00,
2013-01-12 19:06:00,38.1,32.8,30.17,NE,46,0.0,0.0,81,0.00,,,0.00,WUHU216DAVISVP2,2013-01-13 03:06:00,
2013-01-12 19:11:00,37.8,32.5,30.17,NE,46,0.0,0.0,81,0.00,,,0.00,WUHU216DAVISVP2,2013-01-13 03:11:00,
2013-01-12 19:16:00,37.5,32.5,30.17,NE,46,0.0,0.0,82,0.00,,,0.00,WUHU216DAVISVP2,2013-01-13 03:16:00,
2013-01-12 19:21:00,37.2,32.2,30.17,NE,46,0.0,0.0,82,0.00,,,0.00,WUHU216DAVISVP2,2013-01-13 03:21:00,
2013-01-12 19:26:00,37.0,32.3,30.17,NE,46,0.0,0.0,83,0.00,,,0.00,WUHU216DAVISVP2,2013-01-13 03:26:00,
2013-01-12 19:31:00,36.4,31.7,30.17,NE,46,0.0,0.0,83,0.00,,,0.00,WUHU216DAVISVP2,2013-01-13 03:31:00,
2013-01-12 19:36:00,35.6,31.2,30.17,NE,46,0.0,0.0,84,0.00,,,0.00,WUHU216DAVISVP2,2013-01-13 03:36:00,
2013-01-12 19:41:00,35.6,31.5,30.17,NE,46,0.0,0.0,85,0.00,,,0.00,WUHU216DAVISVP2,2013-01-13 03:41:00,
2013-01-12 19:46:00,35.5,31.7,30.17,NE,46,0.0,0.0,86,0.00,,,0.00,WUHU216DAVISVP2,2013-01-13 03:46:00,
2013-01-12 19:51:00,35.8,32.0,30.17,NE,46,0.0,0.0,86,0.00,,,0.00,WUHU216DAVISVP2,2013-01-13 03:51:00,
2013-01-12 19:56:00,35.9,32.1,30.16,NE,46,0.0,0.0,86,0.00,,,0.00,WUHU216DAVISVP2,2013-01-13 03:56:00,
2013-01-12 20:01:00,35.9,31.8,30.17,NE,46,0.0,0.0,85,0.00,,,0.00,WUHU216DAVISVP2,2013-01-13 04:01:00,
2013-01-12 20:06:00,35.8,31.7,30.17,NE,46,0.0,0.0,85,0.00,,,0.00,WUHU216DAVISVP2,2013-01-13 04:06:00,
2013-01-12 20:11:00,35.6,31.5,30.17,NE,46,0.0,0.0,85,0.00,,,0.00,WUHU216DAVISVP2,2013-01-13 04:11:00,
2013-01-12 20:16:00,35.5,31.4,30.17,NE,46,0.0,0.0,85,0.00,,,0.00,WUHU216DAVISVP2,2013-01-13 04:16:00,
2013-01-12 20:21:00,35.6,31.8,30.17,NE,46,0.0,2.0,86,0.00,,,0.00,WUHU216DAVISVP2,2013-01-13 04:21:00,
2013-01-12 20:26:00,35.4,31.6,30.17,NE,46,0.0,2.0,86,0.00,,,0.00,WUHU216DAVISVP2,2013-01-13 04:26:00,
2013-01-12 20:31:00,35.5,31.7,30.17,NE,46,0.0,0.0,86,0.00,,,0.00,WUHU216DAVISVP2,2013-01-13 04:31:00,
2013-01-12 20:36:00,35.6,31.8,30.17,NE,46,0.0,0.0,86,0.00,,,0.00,WUHU216DAVISVP2,2013-01-13 04:36:00,
2013-01-12 20:41:00,35.6,31.5,30.17,NE,46,0.0,0.0,85,0.00,,,0.00,WUHU216DAVISVP2,2013-01-13 04:41:00,
2013-01-12 20:46:00,35.9,32.1,30.17,NE,46,0.0,0.0,86,0.00,,,0.00,WUHU216DAVISVP2,2013-01-13 04:46:00,
2013-01-12 20:51:00,36.3,32.2,30.17,NE,46,0.0,0.0,85,0.00,,,0.00,WUHU216DAVISVP2,2013-01-13 04:51:00,
2013-01-12 20:56:00,36.7,32.3,30.17,NE,46,0.0,0.0,84,0.00,,,0.00,WUHU216DAVISVP2,2013-01-13 04:56:00,
2013-01-12 21:00:00,36.7,32.0,30.17,NE,46,0.0,0.0,83,0.00,,,0.00,WUHU216DAVISVP2,2013-01-13 05:00:00,
2013-01-12 21:01:00,36.7,32.0,30.17,NE,46,0.0,0.0,83,0.00,,,0.00,WUHU216DAVISVP2,2013-01-13 05:01:00,
2013-01-12 21:02:00,36.7,32.0,30.17,NE,46,0.0,0.0,83,0.00,,,0.00,WUHU216DAVISVP2,2013-01-13 05:02:00,
2013-01-12 21:07:00,36.8,32.1,30.17,NE,46,0.0,0.0,83,0.00,,,0.00,WUHU216DAVISVP2,2013-01-13 05:07:00,
2013-01-12 21:12:00,36.8,31.8,30.16,NE,46,0.0,0.0,82,0.00,,,0.00,WUHU216DAVISVP2,2013-01-13 05:12:00,
2013-01-12 21:17:00,36.8,32.1,30.16,NE,46,0.0,0.0,83,0.00,,,0.00,WUHU216DAVISVP2,2013-01-13 05:17:00,
2013-01-12 21:22:00,36.5,32.1,30.16,NE,46,0.0,0.0,84,0.00,,,0.00,WUHU216DAVISVP2,2013-01-13 05:22:00,
2013-01-12 21:27:00,36.5,32.1,30.16,NE,46,0.0,0.0,84,0.00,,,0.00,WUHU216DAVISVP2,2013-01-13 05:27:00,
2013-01-12 21:32:00,36.4,32.0,30.16,NE,46,0.0,0.0,84,0.00,,,0.00,WUHU216DAVISVP2,2013-01-13 05:32:00,
2013-01-12 21:37:00,36.2,31.8,30.16,NE,46,0.0,0.0,84,0.00,,,0.00,WUHU216DAVISVP2,2013-01-13 05:37:00,
2013-01-12 21:42:00,36.0,31.6,30.16,NE,46,0.0,0.0,84,0.00,,,0.00,WUHU216DAVISVP2,2013-01-13 05:42:00,
2013-01-12 21:47:00,35.7,31.6,30.16,NE,46,0.0,0.0,85,0.00,,,0.00,WUHU216DAVISVP2,2013-01-13 05:47:00,
2013-01-12 21:52:00,35.6,31.5,30.17,NE,46,0.0,0.0,85,0.00,,,0.00,WUHU216DAVISVP2,2013-01-13 05:52:00,
2013-01-12 21:57:00,35.6,31.5,30.17,NE,46,0.0,0.0,85,0.00,,,0.00,WUHU216DAVISVP2,2013-01-13 05:57:00,
2013-01-12 22:02:00,35.6,31.2,30.17,NE,46,0.0,0.0,84,0.00,,,0.00,WUHU216DAVISVP2,2013-01-13 06:02:00,
2013-01-12 22:07:00,35.7,31.6,30.17,NE,46,0.0,0.0,85,0.00,,,0.00,WUHU216DAVISVP2,2013-01-13 06:07:00,
2013-01-12 22:12:00,35.6,31.5,30.17,NE,46,0.0,0.0,85,0.00,,,0.00,WUHU216DAVISVP2,2013-01-13 06:12:00,
2013-01-12 22:17:00,35.2,31.1,30.17,NE,46,0.0,0.0,85,0.00,,,0.00,WUHU216DAVISVP2,2013-01-13 06:17:00,
2013-01-12 22:22:00,34.8,31.0,30.17,NE,46,0.0,0.0,86,0.00,,,0.00,WUHU216DAVISVP2,2013-01-13 06:22:00,
2013-01-12 22:27:00,34.5,31.0,30.17,NE,46,0.0,0.0,87,0.00,,,0.00,WUHU216DAVISVP2,2013-01-13 06:27:00,
2013-01-12 22:32:00,34.6,31.4,30.17,NE,46,0.0,0.0,88,0.00,,,0.00,WUHU216DAVISVP2,2013-01-13 06:32:00,
2013-01-12 22:37:00,34.7,31.2,30.18,NE,46,0.0,1.0,87,0.00,,,0.00,WUHU216DAVISVP2,2013-01-13 06:37:00,
2013-01-12 22:42:00,34.4,30.9,30.18,NE,46,0.0,2.0,87,0.00,,,0.00,WUHU216DAVISVP2,2013-01-13 06:42:00,
2013-01-12 22:47:00,34.5,31.0,30.18,NE,46,0.0,2.0,87,0.00,,,0.00,WUHU216DAVISVP2,2013-01-13 06:47:00,
2013-01-12 22:52:00,34.8,30.7,30.18,NE,46,0.0,2.0,85,0.00,,,0.00,WUHU216DAVISVP2,2013-01-13 06:52:00,
2013-01-12 22:57:00,35.2,30.3,30.18,NE,46,0.0,2.0,82,0.00,,,0.00,WUHU216DAVISVP2,2013-01-13 06:57:00,
2013-01-12 23:02:00,35.6,30.3,30.18,NE,46,0.0,2.0,81,0.00,,,0.00,WUHU216DAVISVP2,2013-01-13 07:02:00,
2013-01-12 23:07:00,35.7,29.8,30.18,NE,46,0.0,2.0,79,0.00,,,0.00,WUHU216DAVISVP2,2013-01-13 07:07:00,
2013-01-12 23:12:00,35.7,29.5,30.18,NE,46,0.0,2.0,78,0.00,,,0.00,WUHU216DAVISVP2,2013-01-13 07:12:00,
2013-01-12 23:17:00,35.7,29.2,30.18,NE,46,1.0,2.0,77,0.00,,,0.00,WUHU216DAVISVP2,2013-01-13 07:17:00,
2013-01-12 23:22:00,35.4,28.9,30.19,NE,46,0.0,2.0,77,0.00,,,0.00,WUHU216DAVISVP2,2013-01-13 07:22:00,
2013-01-12 23:27:00,35.3,28.8,30.19,NE,46,0.0,2.0,77,0.00,,,0.00,WUHU216DAVISVP2,2013-01-13 07:27:00,
2013-01-12 23:32:00,35.3,28.8,30.19,NE,46,0.0,2.0,77,0.00,,,0.00,WUHU216DAVISVP2,2013-01-13 07:32:00,
2013-01-12 23:37:00,35.1,28.6,30.19,NE,46,2.0,3.0,77,0.00,,,0.00,WUHU216DAVISVP2,2013-01-13 07:37:00,
2013-01-12 23:42:00,35.0,28.6,30.19,NE,46,0.0,3.0,77,0.00,,,0.00,WUHU216DAVISVP2,2013-01-13 07:42:00,
2013-01-12 23:47:00,34.4,28.0,30.19,NE,46,0.0,2.0,77,0.00,,,0.00,WUHU216DAVISVP2,2013-01-13 07:47:00,
2013-01-12 23:52:00,33.1,27.3,30.19,NE,46,0.0,0.0,79,0.00,,,0.00,WUHU216DAVISVP2,2013-01-13 07:52:00,
2013-01-12 23:57:00,32.8,27.6,30.19,NE,46,0.0,2.0,81,0.00,,,0.00,WUHU216DAVISVP2,2013-01-13 07:57:00,